Location: Buckland
(65.9785°N, 161.1281°W)
Time: 22:44:53
(UTC+00:00)

Transit 4A - Pass Details

Date: 05 December 2020
Orbit: 864 x 981 km, 66.8° (Epoch: 19 January)

Event Time Altitude Azimuth Distance (km) Brightness Sun altitude
Rises 19:09:14 0° 229° (SW) 3,670 11.0 -6.6°
Reaches altitude 10° 19:11:48 10° 227° (SW) 2,731 10.3 -6.5°
Maximum altitude 19:18:09 68° 147° (SSE) 1,059 8.5 -6.0°
Drops below altitude 10° 19:24:31 10° 66° (ENE) 2,734 10.6 -5.5°
Sets 19:27:05 0° 64° (ENE) 3,674 11.2 -5.4°
